Regional Weather Roundup
Issued by NWS Upton, NY

Current Version | Previous Version | Text Only | Print | Product List | Glossary Off
Versions: 1 2 3 4 5 6 7 8 9 10 11 12 13 14 15 16 17 18 19 20 21 22 23 24 25 26 27 28 29 30 31 32 33 34 35 36 37 38 39 40 41 42 43 44 45 46 47 48 49 50

000
ASUS41 KOKX 200905
RWROKX

REGIONAL WEATHER ROUNDUP
NATIONAL WEATHER SERVICE NEW YORK NY
500 AM EDT MON OCT 20 2014

NOTE: "FAIR" INDICATES FEW OR NO CLOUDS BELOW 12,000 FEET WITH NO
SIGNIFICANT WEATHER AND/OR OBSTRUCTIONS TO VISIBILITY.

NYZ071-072-176-178-NJZ106-104-201000-
NEW YORK CITY METRO AREA


CITY           SKY/WX    TMP DP  RH WIND       PRES   REMARKS
CENTRAL PARK   MOCLDY    43  29  57 VRB5      30.11R
LAGUARDIA APRT MOCLDY    44  29  55 W9        30.09R
KENNEDY INTL   MOCLDY    44  29  55 W8        30.10R
NEWARK/LIBERTY MOCLDY    40  30  67 W6        30.10R
BRNX BOT. GARD   N/A    N/A N/A N/A W2        30.10F
TETERBORO      MOCLDY    40  28  62 SW6       30.09R
$$

NYZ177-179-078>081-201000-
LONG ISLAND NEW YORK

CITY           SKY/WX    TMP DP  RH WIND       PRES   REMARKS
FARMINGDALE    PTCLDY    39  30  70 W3        30.09R
ISLIP          PTCLDY    35  29  78 SW3       30.07R
SHIRLEY        NOT AVBL
WESTHAMPTON    PTCLDY    29  23  78 CALM      30.09R
MONTAUK POINT    N/A     44  28  53 NW7       30.07R
$$

NYZ052-065-067-201000-
HUDSON VALLEY

CITY           SKY/WX    TMP DP  RH WIND       PRES   REMARKS
WHITE PLAINS   PTCLDY    38  30  73 W3        30.06R
NEWBURGH       CLEAR     36  28  75 CALM      30.07
MONTGOMERY     PTCLDY    35  28  75 W7        30.06S WCI  29
POUGHKEEPSIE   CLEAR     31  28  89 CALM      30.07R
ALBANY         PTCLDY    32  28  85 CALM      30.05R
$$

NJZ001-105-106-008-010-013-015-019>022-104-201000-
NEW JERSEY

CITY           SKY/WX    TMP DP  RH WIND       PRES   REMARKS
NEWARK/LIBERTY MOCLDY    40  30  67 W6        30.10R
TETERBORO      MOCLDY    40  28  62 SW6       30.09R
CALDWELL       MOCLDY    36  29  75 S3        30.10R
MORRISTOWN     PTCLDY    36  32  87 CALM      30.10R
SOMERVILLE     MOCLDY    33  30  88 CALM      30.09R
SUSSEX         PTCLDY    33  29  85 CALM      30.08S
ANDOVER          N/A     32  30  92 CALM      30.08S
TRENTON        PTCLDY    33  29  85 CALM      30.10R
MILLVILLE      PTCLDY    34  32  92 CALM      30.12R
ATLANTIC CITY  PTCLDY    33  30  88 CALM      30.13R
WRIGHTSTOWN    PTCLDY    32  30  90 S2        30.09R
TOMS RIVER     PTCLDY    28  25  86 CALM      30.12R
BELMAR         PTCLDY    36  27  69 CALM      30.10R
$$

PAZ047>061-062-071-201000-
EASTERN PENNSYLVANIA

CITY           SKY/WX    TMP DP  RH WIND       PRES   REMARKS
PHILADELPHIA   PTCLDY    41  32  70 S3        30.12R
ALLENTOWN      PTCLDY    36  31  82 CALM      30.09S
SCRANTON       PTCLDY    34  29  82 CALM      30.06R
$$

CTZ002-004>006-009-010-012-RIZ004-006-007-MAZ004-011-015-201000-
SOUTHERN NEW ENGLAND
 IN CT

CITY           SKY/WX    TMP DP  RH WIND       PRES   REMARKS
BRADLEY INTL   MOCLDY    35  28  75 SW6       30.04R WCI  30
HARTFORD       MOCLDY    37  28  70 SW10      30.06R WCI  30
DANBURY        PTCLDY    32  28  85 SW3       30.07R
WTRBRY/OXFORD  PTCLDY    34  25  69 CALM      30.06R
BRIDGEPORT     PTCLDY    38  29  70 NW5       30.08R WCI  34
MERIDEN        PTCLDY    31  28  89 CALM      30.08R
NEW HAVEN      PTCLDY    44  30  57 W6        30.08R
CHESTER        FAIR      34  30  86 W3        30.06R
GROTON         CLEAR     32  29  88 NW3       30.06R
WILLIMANTIC    PTCLDY    31  28  89 CALM      30.05R

 IN RI

CITY           SKY/WX    TMP DP  RH WIND       PRES   REMARKS
PROVIDENCE     CLEAR     36  27  69 W6        30.04R WCI  31
BLOCK ISLAND   CLEAR     43  25  49 NW8       30.04R
WESTERLY       CLEAR     35  28  75 W3        30.06R

 IN MA

CITY           SKY/WX    TMP DP  RH WIND       PRES   REMARKS
BOSTON         PTCLDY    40  24  53 W9        30.01R WCI  34
WORCESTER      PTCLDY    31  26  82 SW5       29.98R WCI  26
WESTFIELD      MOCLDY    31  29  92 CALM      30.03R
PROVINCETOWN   PTCLDY    45  27  49 NW16G23   29.99S
NANTUCKET      CLEAR     42  27  55 NW7       30.01R
$$

ANZ330-335-338-340-345-350-353-355-201000-
COASTAL MARINE OBSERVATIONS


STATION/POSITION TIME  SKY/WX   TEMP    WIND        PRES    VSBY  WAVE
                                AIR SEA DIR/SP/G                  HT/PER
                 (UTC)          (F)     (DEG/KT/KT) (MB)    (MI)  (FT/S)
NY HARB ENTRANCE NOT AVBL
4S FIRE IS       0900               63                N/A           2/11
20S FIRE ISLAND  0900            47 64  320/  8/ 12 1019.1          3/11
23SW MTP         0900                                 N/A           4/ 4
HUDSON CANYON    0900            51 65  320/ 12/ 17 1018.3          5/ 6
EXECUTION ROCKS  0900            46 63  270/ 10/ 14   N/A
WESTERN LI SOUND 0900            46     280/ 10/ 14   N/A           0
CENTRAL LI SOUND 0800            45 64  290/ 10/ 14   N/A           1/ 2
EASTERN LI SOUND 0800            44 64  310/ 10/ 16   N/A
ROBBINS REEF     0900            43     270/ 10/ 12 1017.9
$$


>>>>>>>>>>>>>>>>>>>>>>>>>>>> KEY <<<<<<<<<<<<<<<<<<<<<<<<<<<
>                                                          <
>     SKY/WX - SKY CONDITION/PRESENT WEATHER               <
>     TMP    - TEMPERATURE IN FAHRENHEIT                   <
>     DP     - DEWPOINT IN FAHRENHEIT                      <
>     RH     - RELATIVE HUMIDITY IN PERCENT                <
>     WIND   - DIRECTION AND SPEED IN MPH                  <
>     PRES   - MEAN SEA LEVEL PRESSURE IN INCHES OF HG     <
>     WCI    - WIND CHILL INDEX                            <
>     VSB    - VISIBILITY IN MILES                         <
>     HX     - HEAT INDEX                                  <
>     TC     - TEMPERATURE IN CELSIUS                      <
>     VRB    - VARIABLE WIND DIRECTION                     <
>                                                          <
>>>>>>>>>>>>>>>>>>>>>>>>>>>> KEY <<<<<<<<<<<<<<<<<<<<<<<<<<<





USA.gov is the U.S. government's official web portal to all federal, state and local government web resources and services.